GW3636 Weather Reports


time (UTC)temp
C
wind
direction
speed
KPH
gust
KPH
rain 1hr
cm
rain 24hr
cm
rain mn
cm
humidity
%
barometer
mb
20260903084608 -17 0.0 0.0 0.00 0.00 0.00 1017.4
20260903083105 -17 0.0 0.0 0.00 0.00 0.00 1017.3
20260903081607 -17 0.0 0.0 0.00 0.00 0.00 1017.4
20260903080103 -17 0.0 0.0 0.00 0.00 0.00 1017.4
20260903074609 -17 0.0 0.0 0.00 0.00 0.00 1017.5
20260903073109 23 0.0 0.0 0.00 0.00 0.00 90 1017.4
20260903071557 23 0 0.0 0.0 0.00 0.00 0.00 90 1017.3
20260903070107 23 0 0.0 0.0 0.00 0.00 0.00 89 1017.4
20260903064601 23 0 0.0 0.0 0.00 0.00 0.00 88 1017.4
20260903063104 24 0 0.0 0.0 0.00 0.00 0.00 88 1017.4
20260903061604 24 0 0.0 6.4 0.00 0.00 0.00 88 1017.5
20260903060123 24 205 1.6 4.8 0.00 0.00 0.00 88 1017.5
20260903054606 24 202 0.0 6.4 0.00 0.00 0.00 88 1017.4
20260903053108 24 247 3.2 6.4 0.00 0.00 0.00 88 1017.4
20260903051608 24 198 4.8 6.4 0.00 0.00 0.00 88 1017.4
20260903050108 24 198 1.6 4.8 0.00 0.00 0.00 87 1017.3
20260903044606 25 0 0.0 3.2 0.00 0.00 0.00 86 1017.3
20260903043104 25 198 3.2 4.8 0.00 0.00 0.00 85 1017.2
20260903041602 25 198 0.0 1.6 0.00 0.00 0.00 84 1017.2
20260903040112 25 0 0.0 0.0 0.00 0.00 0.00 83 1017.3
20260903034606 26 0 0.0 0.0 0.00 0.00 0.00 82 1017.3
20260903033104 -17 0.0 0.0 0.00 0.00 0.00 1017.5
20260903031606 -17 0.0 0.0 0.00 0.00 0.00 1017.4
20260903030106 -17 0.0 0.0 0.00 0.00 0.00 1017.5
20260903024605 -17 0.0 0.0 0.00 0.00 0.00 1017.6
20260903023107 -17 0.0 0.0 0.00 0.00 0.00 1017.6
20260903021608 27 198 4.8 6.4 0.00 0.00 0.00 75 1017.5
20260903020106 28 198 3.2 8.0 0.00 0.00 0.00 74 1017.4
20260903014632 28 194 4.8 6.4 0.00 0.00 0.00 72 1017.4
20260903013122 29 198 4.8 6.4 0.00 0.00 0.00 69 1017.3
20260903011612 30 196 4.8 8.0 0.00 0.00 0.00 68 1017.2
20260903010106 30 186 4.8 8.0 0.00 0.00 0.00 66 1017.0
20260903004606 30 197 6.4 9.7 0.00 0.00 0.00 63 1016.8
20260903003109 31 182 6.4 9.7 0.00 0.00 0.00 60 1016.6
20260903001606 32 193 3.2 12.9 0.00 0.00 0.00 58 1016.7
20260903000109 32 213 8.0 14.5 0.00 0.00 0.00 55 1016.6
20260902234606 32 213 8.0 17.7 0.00 0.00 0.00 54 1016.6
20260902233109 33 212 11.3 17.7 0.00 0.00 0.00 53 1016.7
20260902231607 33 229 11.3 17.7 0.00 0.00 0.00 51 1016.7
20260902230108 33 219 11.3 19.3 0.00 0.00 0.00 50 1016.8
20260902224611 33 250 14.5 20.9 0.00 0.00 0.00 48 1016.8
20260902223117 34 264 12.9 22.5 0.00 0.00 0.00 47 1016.8
20260902221559 34 206 8.0 11.3 0.00 0.00 0.00 45 1016.8
20260902220111 34 244 9.7 17.7 0.00 0.00 0.00 45 1016.9
20260902214613 35 263 11.3 20.9 0.00 0.00 0.00 45 1016.8
20260902213105 35 289 12.9 17.7 0.00 0.00 0.00 45 1016.8
20260902211600 35 207 11.3 20.9 0.00 0.00 0.00 45 1017.0
20260902210106 34 192 3.2 17.7 0.00 0.00 0.00 45 1017.0
20260902204606 34 253 9.7 22.5 0.00 0.00 0.00 45 1017.1
20260902203104 35 225 12.9 24.1 0.00 0.00 0.00 44 1017.3
20260902201605 35 304 8.0 16.1 0.00 0.00 0.00 44 1017.4
20260902200106 35 340 8.0 14.5 0.00 0.00 0.00 44 1017.5
20260902194610 34 240 4.8 11.3 0.00 0.00 0.00 46 1017.8
20260902193105 35 198 4.8 17.7 0.00 0.00 0.00 45 1017.9
20260902191600 35 191 8.0 14.5 0.00 0.00 0.00 46 1017.9
20260902190100 35 347 0.0 14.5 0.00 0.00 0.00 46 1017.9
20260902184607 34 304 17.7 29.0 0.00 0.00 0.00 48 1018.1
20260902183109 34 276 4.8 16.1 0.00 0.00 0.00 48 1018.2
20260902181604 34 194 12.9 20.9 0.00 0.00 0.00 49 1018.5
20260902180104 33 252 4.8 14.5 0.00 0.00 0.00 49 1018.6
20260902174607 33 301 1.6 8.0 0.00 0.00 0.00 51 1018.7
20260902173135 32 291 9.7 19.3 0.00 0.00 0.00 55 1019.0
20260902171621 33 310 0.0 14.5 0.00 0.00 0.00 54 1019.2
20260902170101 32 323 11.3 17.7 0.00 0.00 0.00 56 1019.5
20260902164611 32 300 6.4 17.7 0.00 0.00 0.00 56 1019.6
20260902163102 32 234 6.4 19.3 0.00 0.00 0.00 54 1019.8
20260902161608 32 304 11.3 20.9 0.00 0.00 0.00 57 1019.9
20260902160104 32 295 6.4 20.9 0.00 0.00 0.00 59 1019.9
20260902154604 32 308 6.4 12.9 0.00 0.00 0.00 60 1020.1
20260902153059 31 286 9.7 14.5 0.00 0.00 0.00 61 1020.0
20260902151602 31 257 6.4 19.3 0.00 0.00 0.00 62 1020.0
20260902150106 30 198 11.3 16.1 0.00 0.00 0.00 64 1019.9
20260902144603 30 209 4.8 11.3 0.00 0.00 0.00 68 1020.0
20260902143109 28 190 4.8 11.3 0.00 0.00 0.00 71 1019.9
20260902141611 28 204 6.4 16.1 0.00 0.00 0.00 74 1019.9
20260902140106 27 167 8.0 14.5 0.00 0.00 0.00 76 1019.8
20260902134608 26 195 8.0 16.1 0.00 0.00 0.00 79 1019.8
20260902133110 25 175 6.4 12.9 0.00 0.00 0.00 82 1019.7
20260902131615 24 157 4.8 9.7 0.00 0.00 0.00 86 1019.6
20260902130106 23 206 3.2 9.7 0.00 0.00 0.00 90 1019.5
20260902124612 22 173 3.2 8.0 0.00 0.00 0.00 92 1019.6
20260902123146 21 203 3.2 6.4 0.00 0.00 0.00 93 1019.6
20260902121557 21 202 3.2 4.8 0.00 0.00 0.00 94 1019.6
20260902120106 21 210 1.6 4.8 0.00 0.00 0.00 94 1019.6
20260902114600 20 192 3.2 6.4 0.00 0.00 0.00 94 1019.4
20260902113058 20 191 4.8 6.4 0.00 0.00 0.00 93 1019.3
20260902111605 20 198 4.8 8.0 0.00 0.00 0.00 93 1019.1
20260902110111 21 200 6.4 8.0 0.00 0.00 0.00 93 1019.0
20260902104605 21 0 0.0 0.0 0.00 0.00 0.00 93 1019.1
20260902103101 21 0 0.0 0.0 0.00 0.00 0.00 93 1019.0
20260902101601 21 0 0.0 0.0 0.00 0.00 0.00 93 1019.0
20260902100101 21 0 0.0 0.0 0.00 0.00 0.00 93 1018.9
20260902094600 21 0 0.0 0.0 0.00 0.00 0.00 93 1018.8
20260902093059 21 0 0.0 0.0 0.00 0.00 0.00 93 1018.7
20260902091616 21 0 0.0 0.0 0.00 0.00 0.00 93 1018.7
20260902090059 21 0 0.0 0.0 0.00 0.00 0.00 93 1018.8